Lid_Strength_Index
-1 -1 -1 -1 -1 -2 -2 -0 -1 -1 -1 -1 -1 -1 -1 -0 0 3 5 3 2 -1 -1 4 6 7 6 8 8 9 15 17 15 14 13 11 12 11 10 11 11 11 11 9 7
-1 -1 -1 -1 -1 -1 -1 -1 -1 -1 -1 -1 -0 -0 -1 -0 5 7 2 0 -0 -2 4 6 8 7 10 9 10 12 15 14 11 12 13 11 11 11 12 12 12 11 10 8 8
-1 -1 -1 -1 -1 -1 -1 -1 -1 -1 -1 -1 -0 -0 -0 1 7 7 1 0 -0 2 4 5 6 7 10 10 11 12 14 11 11 10 10 11 12 11 12 14 12 12 11 9 9
-1 -1 -1 -1 -1 -1 -1 -1 -1 -1 -0 -0 0 0 1 5 13 6 1 1 1 4 5 7 8 11 12 13 10 14 11 10 10 10 11 12 11 12 12 12 11 10 10 10 10
0 1 1 1 0 -1 -1 -0 -0 0 -0 -0 0 1 4 9 10 6 1 3 5 5 6 8 11 12 13 12 12 13 12 10 10 11 11 11 12 13 12 11 11 10 10 11 11
1 2 1 1 0 -0 0 0 0 0 0 0 0 2 6 13 6 6 6 6 5 6 7 8 9 9 12 13 14 12 11 12 11 11 11 12 13 13 13 12 11 11 12 11 11
2 2 2 1 1 1 0 -0 0 1 1 1 1 5 9 10 6 6 6 7 6 7 8 7 7 9 11 13 10 11 13 13 12 11 12 13 15 15 13 12 12 12 12 11 11
3 3 3 2 1 1 2 1 1 2 2 1 1 8 12 6 7 7 7 8 7 6 6 6 6 8 10 11 12 14 15 18 14 12 12 13 17 14 13 14 14 13 12 12 12
2 3 3 3 3 3 3 2 2 2 2 2 8 11 13 5 8 8 8 8 7 7 6 6 7 11 11 15 17 17 19 19 16 13 13 14 16 14 13 14 14 14 13 12 12
2 2 3 3 3 3 4 3 3 5 6 6 8 12 10 11 8 7 6 6 8 9 9 9 12 15 16 17 22 20 20 18 18 15 15 16 16 14 14 14 15 15 14 13 13
2 2 2 2 1 2 5 7 9 11 10 12 11 10 9 7 6 7 6 8 9 11 15 13 16 18 17 17 17 17 19 19 17 14 16 17 17 15 14 15 15 14 14 13 12
2 2 2 2 2 2 5 8 8 9 13 9 9 9 8 7 10 8 7 11 12 15 14 15 17 15 14 15 16 17 19 19 17 15 16 17 17 15 15 15 14 14 13 13 12
4 3 3 3 3 6 7 8 5 6 13 12 9 10 10 8 11 10 9 11 13 15 16 18 16 14 15 16 17 18 19 19 19 17 17 18 19 18 14 13 13 12 12 12 12
3 3 3 4 8 8 9 6 6 7 16 14 12 10 9 9 12 9 8 11 13 16 16 16 15 15 16 17 17 20 16 17 17 19 21 16 21 19 17 15 14 13 12 12 12
2 2 2 4 9 10 8 7 8 11 24 14 13 9 10 12 12 11 9 12 15 15 16 17 16 17 18 16 16 17 15 16 16 18 19 19 21 18 17 17 14 12 11 11 11
2 3 3 6 7 6 5 6 8 17 23 15 12 13 13 12 12 11 11 11 11 14 14 15 13 15 16 14 14 13 15 16 17 18 21 18 20 18 18 17 15 13 11 10 10
2 4 5 5 9 5 6 8 15 18 13 14 14 12 13 13 12 12 13 15 17 18 19 16 15 14 13 16 14 15 17 21 21 22 21 18 20 17 17 14 14 12 11 11 13
3 4 5 6 6 6 8 12 19 14 15 12 12 12 15 14 14 14 15 16 16 17 19 20 18 15 13 16 17 17 17 21 24 24 22 18 20 17 16 14 13 12 13 12 13
4 6 7 7 6 7 11 19 17 15 13 13 13 15 15 14 15 15 17 17 17 17 18 19 17 15 14 14 15 17 19 16 19 21 23 19 17 17 15 14 14 14 13 13 12
8 8 7 7 7 8 13 15 15 12 12 12 16 15 16 16 16 15 16 16 16 16 16 18 19 15 15 14 14 16 15 20 20 24 22 20 19 17 17 16 15 15 14 13 13
8 9 6 6 7 11 16 15 12 11 11 13 14 15 16 16 16 15 15 15 14 15 16 17 18 17 16 17 16 16 18 17 18 18 22 25 20 15 16 15 15 15 13 13 13
10 15 7 7 11 13 14 13 10 12 11 12 13 14 15 15 16 16 15 16 14 14 16 16 18 21 17 15 16 16 17 17 20 21 20 21 20 13 15 15 14 14 12 12 12
11 11 7 8 14 14 12 11 11 12 12 12 13 13 14 15 16 15 15 13 13 14 15 15 19 23 19 18 16 18 17 16 16 18 21 21 20 14 15 14 12 12 12 13 12
11 14 11 11 12 13 14 13 13 11 12 12 13 13 14 15 14 15 15 13 13 14 9 11 17 18 21 19 17 18 16 16 18 19 19 18 17 14 12 12 12 12 14 13 13
11 13 13 16 13 13 13 13 13 13 12 12 13 13 14 16 15 15 14 13 13 12 13 15 21 18 16 15 16 16 17 16 18 17 19 18 17 14 13 12 13 13 13 13 12
12 13 12 13 13 14 13 14 12 12 12 12 13 13 13 14 14 15 14 14 14 14 15 16 20 21 22 16 16 17 16 16 16 16 16 16 16 12 13 14 14 13 12 12 11
10 10 12 13 14 14 14 13 12 11 11 11 12 14 14 13 12 12 12 12 12 14 15 16 17 18 19 17 17 22 17 15 16 15 15 17 15 14 14 13 13 13 12 12 11